Location: La Silve
(44.2414°N, 5.8889°E)
Time: 03:55:20
(UTC+00:00)

FengYun 1-2 T - Pass Details

Date: 01 December 2020
Orbit: 847 x 880 km, 98.7° (Epoch: 24 January)

Event Time Altitude Azimuth Distance (km) Brightness Sun altitude
Rises 16:47:47 0° 150° (SSE) 3,423 7.3 -8.7°
Reaches altitude 10° 16:50:12 10° 145° (SE) 2,486 6.5 -9.1°
Maximum altitude 16:55:32 53° 70° (ENE) 1,040 4.3 -10.0°
Drops below altitude 10° 17:00:53 10° 355° (N) 2,485 6.5 -10.9°
Sets 17:03:18 0° 351° (N) 3,423 7.3 -11.3°
